#timestamp,LO_Frequency,Hit,StdDev 
1710352815.6,286047002.6,N
1710352835.5,286047002.7,N
1710352855.3,286047002.3,N
1710352875.1,286047000.1,N
1710352895.9,286047000.0,N
1710352915.7,286047000.5,N
1710352935.6,286046998.4,N
1710352955.4,286046999.1,N
1710352975.2,286046998.7,N
1710352995.1,286046996.9,N
1710352996.0,286046996.9,N
1710353015.8,286046996.5,N
1710353035.7,286046999.2,N
1710353055.5,286046998.5,N
1710353075.3,286047000.5,N
1710353095.2,286047000.4,N
1710353115.0,286046999.8,N
1710353115.9,286046999.8,N
1710353135.8,286046999.8,N
1710353155.6,286047001.0,N
1710353175.4,286046999.7,N
1710353195.3,286047002.7,N
1710353215.1,286047002.5,N
1710353235.8,286047002.4,N
1710353255.7,286047002.3,N
1710353275.5,286047002.2,N
1710353295.4,286047001.8,N
1710353315.2,286047001.4,N
1710353335.0,286047001.5,N
1710353335.9,286047001.5,N
1710353355.8,286047000.1,N
1710353375.6,286047000.9,N
1710353395.5,286046999.8,N
1710353415.3,286046999.8,N
1710353435.1,286047002.6,N
1710353455.9,286047000.1,N
1710353475.7,286046999.9,N
1710353495.5,286047000.0,N
1710353515.4,286047001.2,N
1710353535.2,286046998.4,N
1710353555.1,286046996.6,N
1710353556.0,286046996.6,N
1710353575.8,286046998.4,N
1710353595.6,286047001.1,N
1710353615.5,286046999.4,N
1710353635.3,286046999.4,N
1710353655.1,286046998.3,N
1710353675.9,286046998.3,N
1710353695.7,286046998.2,N
1710353715.6,286047000.8,N
1710353735.4,286047000.7,N
1710353755.3,286046998.1,N
1710353775.1,286047000.3,N
1710353776.0,286047000.3,N
1710353795.8,286046999.7,N
1710353815.7,286047000.6,N
1710353835.5,286047000.2,N
1710353855.4,286046998.1,N
1710353875.2,286046998.5,N
1710353895.0,286046998.8,N
1710353895.9,286046998.8,N
1710353915.8,286046998.9,N
1710353935.6,286046999.6,N
1710353955.5,286046997.0,N
1710353975.3,286046999.0,N
1710353995.1,286046998.4,N
1710354015.9,286046998.9,N
1710354035.7,286047001.2,N
1710354055.5,286046998.9,N
1710354075.4,286046998.2,N
1710354095.2,286046998.6,N
1710354115.1,286046999.1,N
1710354116.0,286046999.1,N
1710354135.8,286046998.8,N
1710354155.6,286046998.6,N
1710354175.5,286047000.9,N
1710354195.3,286047000.8,N
1710354215.2,286047001.1,N
1710354235.9,286046999.0,N
1710354255.7,286046998.4,N
1710354275.6,286046998.6,N
1710354295.4,286046998.8,N
1710354315.3,286046998.9,N
1710354335.1,286046998.7,N
1710354336.0,286046998.7,N
1710354355.8,286046999.1,N
1710354375.7,286046998.3,N
1710354395.5,286046999.3,N
1710354415.4,286046998.4,N
1710354435.2,286046999.3,N
1710354455.0,286046998.2,N
1710354455.9,286046998.2,N
1710354475.8,286046999.5,N
1710354495.6,286046999.3,N
1710354515.4,286046996.5,Y
1710354535.3,286047001.2,P
1710354555.1,286047000.6,N
1710354575.9,286047000.2,N
1710354595.7,286047000.1,N
1710354615.5,286046999.9,N
1710354635.4,286047000.1,N
1710354655.2,286047000.1,N
1710354675.1,286047002.6,Y
1710354676.0,286047002.6,P
1710354695.8,286047001.8,N
1710354715.6,286047011.9,P
1710354735.5,286047002.5,N
1710354755.3,286047000.1,N
1710354775.1,286047000.3,N
1710354795.9,286047002.4,N
1710354815.7,286047000.6,N
1710354835.6,286046999.8,N
1710354855.4,286046999.7,N
1710354875.2,286047001.7,N
1710354895.1,286047002.2,N
1710354896.0,286047002.2,N
1710354915.8,286046999.7,N
1710354935.6,286047002.6,N
1710354955.5,286047001.1,N
1710354975.3,286046999.4,N
1710354995.2,286046996.9,N
1710355015.9,286046999.4,N
1710355035.7,286046999.6,N
1710355055.6,286046999.0,N
1710355075.4,286046998.7,N
1710355095.3,286047000.6,N
1710355115.1,286047000.0,N
1710355116.0,286047000.0,N
1710355135.8,286047001.8,N
1710355155.7,286047004.0,N
1710355175.5,286047003.9,N
1710355195.4,286047003.4,N
1710355215.2,286047004.2,N
1710355235.0,286047003.5,N
1710355235.9,286047003.5,N
1710355255.8,286047003.8,N
1710355275.6,286047003.2,N
1710355295.5,286047004.2,N
1710355315.3,286047001.8,N
1710355335.1,286047002.5,N
1710355355.9,286047000.0,N
1710355375.7,286047000.6,N
1710355395.5,286047000.8,N
1710355415.4,286047000.3,N
1710355435.2,286047000.2,N
1710355455.1,286047002.3,N
1710355456.0,286047002.3,N
1710355475.8,286047002.7,N
1710355495.6,286047001.5,N
1710355515.5,286047004.4,N
1710355535.3,286047001.4,N
1710355555.1,286047003.8,N
1710355575.9,286047001.3,N
1710355595.7,286047002.5,N
1710355615.6,286046999.7,N
1710355635.4,286047000.0,N
1710355655.2,286047000.3,N
1710355675.1,286047002.2,N
1710355676.0,286047002.2,N
1710355695.8,286047002.6,N
1710355715.7,286046999.8,N
1710355735.5,286047002.6,N
1710355755.3,286047002.5,N
1710355775.2,286047002.3,N
1710355795.0,286047002.4,N
1710355795.9,286047002.4,N
1710355815.7,286047002.4,N
1710355835.6,286047002.5,N
1710355855.4,286047002.5,N
1710355875.3,286047002.6,N
1710355895.1,286047001.8,N
1710355915.8,286047002.2,N
1710355935.7,286047002.6,N
1710355955.5,286046999.9,N
1710355975.4,286047000.9,N
1710355995.2,286046999.8,N
1710356015.0,286047000.9,N
1710356015.9,286047000.9,N
1710356035.8,286047000.3,N
1710356055.6,286047000.1,N
1710356075.5,286047002.4,N
1710356095.3,286047002.4,N
1710356115.1,286047002.3,N
1710356135.9,286047002.5,N
1710356155.7,286047002.3,N
1710356175.5,286047000.0,N
1710356195.4,286047000.4,N
1710356215.2,286047002.2,N
1710356235.1,286047004.2,Y
1710356236.0,286047004.2,P
1710356255.8,286047002.8,N
1710356275.6,286047002.8,N
1710356295.5,286046999.7,N
1710356315.3,286047001.1,N
1710356335.1,286047001.1,N
1710356355.9,286046999.1,N
1710356375.7,286046995.0,Y
1710356395.6,286046995.6,P
